TimeEET,TemperatureF,Dew PointF,Humidity,Sea Level PressureIn,VisibilityMPH,Wind Direction,Wind SpeedMPH,Gust SpeedMPH,PrecipitationIn,Events,Conditions,WindDirDegrees,DateUTC
12:20 AM,51.8,50.0,94,29.89,-9999.0,ENE,4.6,-,N/A,,Clear,70,2013-03-13 22:20:00
12:50 AM,51.8,50.0,94,29.86,-9999.0,NNE,4.6,-,N/A,,Clear,30,2013-03-13 22:50:00
1:20 AM,50.0,48.2,94,29.86,-9999.0,NE,4.6,-,N/A,,Clear,50,2013-03-13 23:20:00
1:50 AM,51.8,50.0,94,29.89,-9999.0,ENE,4.6,-,N/A,,Clear,60,2013-03-13 23:50:00
2:00 AM,51,50,94,29.89,6,ENE,4.6,,,,,60,2013-03-14 00:00:00
2:20 AM,50.0,48.2,94,29.86,-9999.0,ENE,6.9,-,N/A,,Clear,60,2013-03-14 00:20:00
2:50 AM,50.0,50.0,100,29.86,-9999.0,NE,5.8,-,N/A,,Clear,40,2013-03-14 00:50:00
3:20 AM,50.0,50.0,100,29.86,-9999.0,NNE,4.6,-,N/A,,Clear,30,2013-03-14 01:20:00
3:50 AM,50.0,48.2,94,29.86,-9999.0,NNE,5.8,-,N/A,,Clear,30,2013-03-14 01:50:00
4:20 AM,50.0,48.2,94,29.86,-9999.0,NNE,6.9,-,N/A,,Clear,20,2013-03-14 02:20:00
4:50 AM,48.2,48.2,100,29.86,-9999.0,ENE,5.8,-,N/A,,Clear,70,2013-03-14 02:50:00
5:20 AM,50.0,48.2,94,29.86,-9999.0,NE,5.8,-,N/A,,Clear,40,2013-03-14 03:20:00
5:50 AM,48.2,46.4,93,29.83,-9999.0,NE,8.1,-,N/A,,Clear,50,2013-03-14 03:50:00
6:20 AM,48.2,46.4,93,29.86,6.2,North,8.1,-,N/A,,Scattered Clouds,350,2013-03-14 04:20:00
6:50 AM,48.2,46.4,93,29.86,6.2,East,6.9,-,N/A,,Scattered Clouds,80,2013-03-14 04:50:00
7:20 AM,51.8,48.2,88,29.86,6.2,NNE,6.9,-,N/A,,Mostly Cloudy,30,2013-03-14 05:20:00
7:50 AM,51.8,48.2,88,29.86,6.2,NNE,8.1,-,N/A,,Mostly Cloudy,20,2013-03-14 05:50:00
8:00 AM,52,48,82,29.88,6,NNE,8.1,,,,Scattered Clouds,20,2013-03-14 06:00:00
8:20 AM,53.6,48.2,82,29.86,6.2,NNE,6.9,-,N/A,,Mostly Cloudy,20,2013-03-14 06:20:00
8:50 AM,57.2,51.8,82,29.86,6.2,NNE,5.8,-,N/A,,Mostly Cloudy,30,2013-03-14 06:50:00
9:20 AM,59.0,51.8,77,29.86,6.2,NNE,5.8,-,N/A,,Mostly Cloudy,20,2013-03-14 07:20:00
9:50 AM,60.8,51.8,72,29.86,6.2,Variable,2.3,-,N/A,,Mostly Cloudy,0,2013-03-14 07:50:00
10:20 AM,64.4,53.6,68,29.86,6.2,South,6.9,-,N/A,,Mostly Cloudy,190,2013-03-14 08:20:00
10:50 AM,66.2,53.6,64,29.83,6.2,South,4.6,-,N/A,,Mostly Cloudy,180,2013-03-14 08:50:00
11:20 AM,66.2,51.8,60,29.83,6.2,SSW,9.2,-,N/A,,Mostly Cloudy,200,2013-03-14 09:20:00
11:50 AM,66.2,55.4,68,29.80,6.2,SSW,9.2,-,N/A,,Scattered Clouds,210,2013-03-14 09:50:00
12:20 PM,68.0,51.8,56,29.80,6.2,South,5.8,-,N/A,,Mostly Cloudy,190,2013-03-14 10:20:00
12:50 PM,66.2,55.4,68,29.80,6.2,SW,8.1,-,N/A,,Mostly Cloudy,230,2013-03-14 10:50:00
1:20 PM,66.2,55.4,68,29.77,6.2,SSW,8.1,-,N/A,,Mostly Cloudy,210,2013-03-14 11:20:00
1:50 PM,66.2,53.6,64,29.74,6.2,SW,6.9,-,N/A,,Mostly Cloudy,220,2013-03-14 11:50:00
2:00 PM,66,54,56,29.77,6,SW,6.9,,,,Scattered Clouds,220,2013-03-14 12:00:00
2:20 PM,66.2,55.4,68,29.74,6.2,SSW,8.1,-,N/A,,Mostly Cloudy,210,2013-03-14 12:20:00
2:50 PM,66.2,51.8,60,29.71,6.2,SW,4.6,-,N/A,,Mostly Cloudy,220,2013-03-14 12:50:00
3:20 PM,66.2,50.0,56,29.71,6.2,West,3.5,-,N/A,,Mostly Cloudy,260,2013-03-14 13:20:00
3:50 PM,64.4,55.4,73,29.71,6.2,SSW,10.4,-,N/A,,Mostly Cloudy,210,2013-03-14 13:50:00
4:20 PM,64.4,55.4,73,29.68,6.2,Variable,2.3,-,N/A,,Mostly Cloudy,0,2013-03-14 14:20:00
4:50 PM,62.6,55.4,77,29.65,6.2,NW,3.5,-,N/A,,Mostly Cloudy,320,2013-03-14 14:50:00
5:20 PM,60.8,57.2,88,29.62,6.2,NE,6.9,-,N/A,,Mostly Cloudy,50,2013-03-14 15:20:00
5:50 PM,60.8,55.4,82,29.62,6.2,Variable,2.3,-,N/A,,Mostly Cloudy,0,2013-03-14 15:50:00
6:20 PM,60.8,55.4,82,29.62,6.2,NE,8.1,-,N/A,,Mostly Cloudy,40,2013-03-14 16:20:00
6:50 PM,60.8,55.4,82,29.62,6.2,NE,4.6,-,N/A,,Mostly Cloudy,50,2013-03-14 16:50:00
7:20 PM,59.0,55.4,88,29.59,6.2,ENE,5.8,-,N/A,,Mostly Cloudy,70,2013-03-14 17:20:00
7:50 PM,60.8,53.6,77,29.59,6.2,NNW,12.7,-,N/A,,Mostly Cloudy,330,2013-03-14 17:50:00
8:00 PM,61,54,71,29.62,6,NNW,12.7,,,,Partly Cloudy,330,2013-03-14 18:00:00
8:20 PM,66.2,46.4,49,29.59,6.2,ESE,10.4,21.9,N/A,,Mostly Cloudy,120,2013-03-14 18:20:00
8:50 PM,77.0,26.6,16,29.56,6.2,SSE,17.3,36.8,N/A,,Mostly Cloudy,150,2013-03-14 18:50:00
9:20 PM,77.0,35.6,22,29.53,6.2,ESE,18.4,34.5,N/A,,Mostly Cloudy,120,2013-03-14 19:20:00
9:50 PM,77.0,32.0,19,29.56,6.2,ESE,16.1,28.8,N/A,,Mostly Cloudy,110,2013-03-14 19:50:00
10:20 PM,69.8,42.8,38,29.56,6.2,ENE,13.8,-,N/A,,Mostly Cloudy,60,2013-03-14 20:20:00
10:50 PM,78.8,32.0,18,29.53,6.2,SE,13.8,34.5,N/A,,Mostly Cloudy,140,2013-03-14 20:50:00
11:20 PM,78.8,30.2,17,29.53,6.2,SE,23.0,34.5,N/A,,Mostly Cloudy,140,2013-03-14 21:20:00
11:50 PM,78.8,32.0,18,29.50,6.2,SSE,21.9,36.8,N/A,,Mostly Cloudy,150,2013-03-14 21:50:00